Вернуться в каталог

STARLINK-32640

АктивенСвязьVLEO
NORAD 62198·PAYLOAD·🇺🇸 United States

Запущен Dec 4, 2024 с Cape Canaveral Space Force Station

Loading…

Ближайшие Пролёты (ближайшие 24 часа)

TLE

СвежийSource: CelesTrak SupGP

Эпоха: Sep 14, 2026, 20:42 UTC

1 62198C 24229G   26257.86298611 -.00002105  00000+0 -76274-4 0  2574
2 62198  43.0024 282.1742 0001405 267.2065 148.4375 15.27572601    14

Отслеживайте STARLINK-32640 в реальном времени с AllMySat

Download on the App Store